Home > Weather > Kortrijk > Past weeks

Flag for Belgium Past Weather in Kortrijk, Belgium — Yesterday and Last 2 Weeks

Now
63 °F

Light rain. Partly sunny.


Feels Like: 63 °F
Forecast: 57 / 69 °F
Wind: 8 mph from Northwest

Location: Lille Airport

Current Time: Jun 29, 2016 at 8:16:35 PM

Latest Report: Jun 29, 2016 at 7:30 PM


Visibility: N/A

Pressure: 29.86 "Hg

Humidity: 83%

Dew Point: 57 °F

Location of KortrijkLocation

Past Weather in Kortrijk — Graph

°F

Kortrijk Temperature Yesterday

Maximum temperature yesterday: 72 °F (at 4:00 PM)
Minimum temperature yesterday: 54 °F (at 6:00 AM)
Average temperature yesterday: 62 °F

High & Low Weather Summary for the Past Weeks

 TemperatureHumidityPressure
High84 °F (Jun 23, 4:30 PM)100% (Jun 15, 5:00 AM)30.30 "Hg (Jun 15, 5:00 AM)
Low50 °F (Jun 16, 3:30 AM)46% (Jun 25, 5:00 PM)29.45 "Hg (Jun 15, 3:30 AM)
Average62 °F81%29.96 "Hg
* Reported Jun 14 7:00 PM — Jun 29 7:00 PM, Kortrijk, Weather by CustomWeather, © 2016

Note: Actual official high and low records may vary slightly from our data, if they occured in-between our weather recording intervals... More about our weather records

Advertising

Kortrijk Weather History for the Previous 24 Hours

Scroll right to see more
 ConditionsComfort  
Time TempWeatherWind HumidityBarometerVisibility
7:00 PM
Wed, Jun 29
64 °FSunny.9 mph68%29.86 "Hg10 mi
6:30 PM66 °FSunny.5 mph60%29.86 "Hg10 mi
6:00 PM66 °FMild.7 mph60%29.86 "HgN/A
5:30 PM66 °FPartly sunny.9 mph60%29.89 "HgN/A
5:00 PM68 °FPartly sunny.12 mph60%29.89 "HgN/A
4:30 PM68 °FBroken clouds.13 mph56%29.89 "HgN/A
4:00 PM68 °FBroken clouds.14 mph53%29.89 "HgN/A
3:30 PM68 °FPartly sunny.13 mph56%29.89 "HgN/A
3:00 PM68 °FBroken clouds.14 mph56%29.89 "HgN/A
2:30 PM66 °FBroken clouds.17 mph60%29.92 "HgN/A
2:00 PM66 °FPartly sunny.15 mph60%29.92 "HgN/A
1:30 PM64 °FPartly sunny.14 mph60%29.92 "HgN/A
1:00 PM66 °FPartly sunny.13 mph60%29.92 "HgN/A
12:30 PM64 °FPartly sunny.15 mph68%29.92 "HgN/A
12:00 PM64 °FPartly sunny.15 mph68%29.92 "HgN/A
11:30 AM61 °FPartly sunny.12 mph77%29.92 "HgN/A
11:00 AM61 °FPartly sunny.12 mph72%29.92 "HgN/A
10:30 AM61 °FPartly sunny.12 mph77%29.92 "HgN/A
10:00 AM61 °FPartly sunny.13 mph77%29.92 "HgN/A
9:30 AM61 °FScattered clouds.12 mph77%29.92 "HgN/A
9:00 AM59 °FPassing clouds.12 mph77%29.92 "HgN/A
8:30 AM57 °FPassing clouds.10 mph82%29.92 "HgN/A
8:00 AM57 °FPartly sunny.15 mph82%29.89 "HgN/A
7:30 AM57 °FOvercast.9 mph82%29.89 "HgN/A
7:00 AM57 °FMostly cloudy.10 mph88%29.89 "HgN/A
6:30 AM57 °FMostly cloudy.14 mph82%29.89 "HgN/A
6:00 AM57 °FMostly cloudy.12 mph82%29.86 "HgN/A
5:30 AM57 °FOvercast.15 mph82%29.86 "HgN/A
5:00 AM57 °FMostly cloudy.14 mph82%29.86 "HgN/A
4:30 AM57 °FMostly cloudy.13 mph88%29.86 "HgN/A
4:00 AM57 °FMostly cloudy.14 mph88%29.86 "HgN/A
3:30 AM57 °FMostly cloudy.13 mph88%29.86 "HgN/A
3:00 AM57 °FPassing clouds.12 mph88%29.86 "HgN/A
2:30 AM57 °FPassing clouds.14 mph88%29.86 "HgN/A
2:00 AM57 °FPassing clouds.10 mph94%29.86 "HgN/A
1:30 AM57 °FPassing clouds.12 mph94%29.86 "HgN/A
1:00 AM57 °FMostly cloudy.9 mph100%29.86 "HgN/A
12:30 AM57 °FPartly cloudy.6 mph94%29.86 "HgN/A
12:00 AM57 °FHeavy rain. Fog.3 mph94%29.86 "Hg3 mi
11:30 PM
Tue, Jun 28
57 °FPartly cloudy.3 mph94%29.86 "HgN/A
11:00 PM57 °FBroken clouds.2 mph94%29.86 "HgN/A
10:30 PM57 °FLight rain. Broken clouds.9 mph94%29.86 "Hg4 mi
10:00 PM57 °FLight rain. Broken clouds.15 mph94%29.89 "Hg4 mi
9:30 PM61 °FHeavy rain. Fog.12 mph88%29.89 "Hg2 mi
9:00 PM63 °FRain. Fog.10 mph88%29.86 "Hg1 mi
8:30 PM68 °FMostly cloudy.3 mph60%29.86 "HgN/A
8:00 PM70 °FSunny.6 mph57%29.86 "Hg10 mi
Weather by CustomWeather, © 2016

See weather overviewHow to use our weather pages